date,time,SUV Intensity [MED/Hr],UV Index,Daily total [MED],Since Last [MED]
18/07/2023,23:59:06,-0.000,0.0,9.559,9.559
19/07/2023,00:00:06,0.000,0.0,0.0,-9.559
19/07/2023,00:01:06,0.001,0.0,0.0,0.0
19/07/2023,00:02:06,0.000,0.0,0.0,0.0
19/07/2023,00:03:06,0.000,0.0,0.0,0.0
19/07/2023,00:04:06,0.000,0.0,0.0,0.0
19/07/2023,00:05:06,0.001,0.0,0.0,0.0
19/07/2023,00:06:06,0.000,0.0,0.0,0.0
19/07/2023,00:07:06,-0.000,0.0,0.0,0.0
19/07/2023,00:08:06,0.000,0.0,0.0,0.0
19/07/2023,00:09:06,0.000,0.0,0.0,0.0
19/07/2023,00:10:06,0.000,0.0,0.0,0.0
19/07/2023,00:11:06,-0.000,0.0,0.0,0.0
19/07/2023,00:12:06,-0.000,0.0,0.0,0.0
19/07/2023,00:13:06,0.000,0.0,0.0,0.0
19/07/2023,00:14:06,0.000,0.0,0.0,0.0
19/07/2023,00:15:06,0.000,0.0,0.0,0.0
19/07/2023,00:16:05,0.000,0.0,0.0,0.0
19/07/2023,00:17:06,0.000,0.0,0.0,0.0
19/07/2023,00:18:06,0.000,0.0,0.0,0.0
19/07/2023,00:19:06,0.001,0.0,0.0,0.0
19/07/2023,00:20:06,-0.000,0.0,0.0,0.0
19/07/2023,00:21:05,0.000,0.0,0.0,0.0
19/07/2023,00:22:06,0.000,0.0,0.0,0.0
19/07/2023,00:23:06,0.000,0.0,0.0,0.0
19/07/2023,00:24:06,0.000,0.0,0.0,0.0
19/07/2023,00:25:07,0.000,0.0,0.0,0.0
19/07/2023,00:26:06,0.000,0.0,0.0,0.0
19/07/2023,00:27:06,0.000,0.0,0.0,0.0
19/07/2023,00:28:06,0.000,0.0,0.0,0.0
19/07/2023,00:29:06,0.000,0.0,0.0,0.0
19/07/2023,00:30:06,0.000,0.0,0.0,0.0
19/07/2023,00:31:06,-0.000,0.0,0.0,0.0
19/07/2023,00:32:06,0.000,0.0,0.0,0.0
19/07/2023,00:33:06,0.000,0.0,0.0,0.0
19/07/2023,00:34:06,0.000,0.0,0.0,0.0
19/07/2023,00:35:06,0.000,0.0,0.0,0.0
19/07/2023,00:36:06,0.001,0.0,0.0,0.0
19/07/2023,00:37:06,0.000,0.0,0.0,0.0
19/07/2023,00:38:06,0.000,0.0,0.0,0.0
19/07/2023,00:39:06,-0.000,0.0,0.0,0.0
19/07/2023,00:40:05,0.000,0.0,0.0,0.0
19/07/2023,00:41:06,0.000,0.0,0.0,0.0
19/07/2023,00:42:06,0.000,0.0,0.0,0.0
19/07/2023,00:43:06,0.000,0.0,0.0,0.0
19/07/2023,00:44:06,0.000,0.0,0.0,0.0
19/07/2023,00:45:06,0.000,0.0,0.0,0.0
19/07/2023,00:46:06,-0.000,0.0,0.0,0.0
19/07/2023,00:47:06,0.000,0.0,0.0,0.0
19/07/2023,00:48:06,0.000,0.0,0.0,0.0
19/07/2023,00:49:06,-0.000,0.0,0.0,0.0
19/07/2023,00:50:06,0.000,0.0,0.0,0.0
19/07/2023,00:51:06,-0.000,0.0,0.0,0.0
19/07/2023,00:52:06,0.000,0.0,0.0,0.0
19/07/2023,00:53:06,0.000,0.0,0.0,0.0
19/07/2023,00:54:06,-0.000,0.0,0.0,0.0
19/07/2023,00:55:06,0.001,0.0,0.0,0.0
19/07/2023,00:56:06,0.000,0.0,0.0,0.0
19/07/2023,00:57:06,0.000,0.0,0.0,0.0
19/07/2023,00:58:06,0.000,0.0,0.0,0.0
19/07/2023,00:59:05,0.000,0.0,0.0,0.0
19/07/2023,01:00:06,0.000,0.0,0.0,0.0
19/07/2023,01:01:06,0.000,0.0,0.0,0.0
19/07/2023,01:02:06,0.000,0.0,0.0,0.0
19/07/2023,01:03:06,-0.000,0.0,0.0,0.0
19/07/2023,01:04:06,-0.000,0.0,0.0,0.0
19/07/2023,01:05:06,0.000,0.0,0.0,0.0
19/07/2023,01:06:06,0.000,0.0,0.0,0.0
19/07/2023,01:07:06,0.001,0.0,0.0,0.0
19/07/2023,01:08:06,-0.000,0.0,0.0,0.0
19/07/2023,01:09:06,-0.000,0.0,0.0,0.0
19/07/2023,01:10:06,-0.000,0.0,0.0,0.0
19/07/2023,01:11:06,0.000,0.0,0.0,0.0
19/07/2023,01:12:05,0.000,0.0,0.0,0.0
19/07/2023,01:13:06,0.000,0.0,0.0,0.0
19/07/2023,01:14:06,0.000,0.0,0.0,0.0
19/07/2023,01:15:06,0.000,0.0,0.0,0.0
19/07/2023,01:16:06,-0.000,0.0,0.0,0.0
19/07/2023,01:17:06,0.000,0.0,0.0,0.0
19/07/2023,01:18:06,0.000,0.0,0.0,0.0
19/07/2023,01:19:06,0.001,0.0,0.0,0.0
19/07/2023,01:20:06,0.000,0.0,0.0,0.0
19/07/2023,01:21:06,0.000,0.0,0.0,0.0
19/07/2023,01:22:06,-0.000,0.0,0.0,0.0
19/07/2023,01:23:06,0.000,0.0,0.0,0.0
19/07/2023,01:24:07,0.001,0.0,0.0,0.0
19/07/2023,01:25:06,0.000,0.0,0.0,0.0
19/07/2023,01:26:06,0.000,0.0,0.0,0.0
19/07/2023,01:27:06,-0.000,0.0,0.0,0.0
19/07/2023,01:28:06,-0.000,0.0,0.0,0.0
19/07/2023,01:29:06,0.000,0.0,0.0,0.0
19/07/2023,01:30:06,0.000,0.0,0.0,0.0
19/07/2023,01:31:06,-0.000,0.0,0.0,0.0
19/07/2023,01:32:06,-0.000,0.0,0.0,0.0
19/07/2023,01:33:06,-0.000,0.0,0.0,0.0
19/07/2023,01:34:06,-0.000,0.0,0.0,0.0
19/07/2023,01:35:06,-0.000,0.0,0.0,0.0
19/07/2023,01:36:06,-0.000,0.0,0.0,0.0
19/07/2023,01:37:06,-0.000,0.0,0.0,0.0
19/07/2023,01:38:06,-0.000,0.0,0.0,0.0
19/07/2023,01:39:06,-0.000,0.0,0.0,0.0
19/07/2023,01:40:06,-0.000,0.0,0.0,0.0
19/07/2023,01:41:06,-0.000,0.0,0.0,0.0
19/07/2023,01:42:06,-0.000,0.0,0.0,0.0
19/07/2023,01:43:06,-0.000,0.0,0.0,0.0
19/07/2023,01:44:06,-0.000,0.0,0.0,0.0
19/07/2023,01:45:06,-0.000,0.0,0.0,0.0
19/07/2023,01:46:06,-0.000,0.0,0.0,0.0
19/07/2023,01:47:06,-0.000,0.0,0.0,0.0
19/07/2023,01:48:06,-0.000,0.0,0.0,0.0
19/07/2023,01:49:06,-0.000,0.0,0.0,0.0
19/07/2023,01:50:06,-0.000,0.0,0.0,0.0
19/07/2023,01:51:06,-0.000,0.0,0.0,0.0
19/07/2023,01:52:06,-0.000,0.0,0.0,0.0
19/07/2023,01:53:06,-0.000,0.0,0.0,0.0
19/07/2023,01:54:06,-0.001,0.0,0.0,0.0
19/07/2023,01:55:06,-0.000,0.0,0.0,0.0
19/07/2023,01:56:06,-0.000,0.0,0.0,0.0
19/07/2023,01:57:06,-0.000,0.0,0.0,0.0
19/07/2023,01:58:06,-0.000,0.0,0.0,0.0
19/07/2023,01:59:06,-0.000,0.0,0.0,0.0
19/07/2023,02:00:06,-0.000,0.0,0.0,0.0
19/07/2023,02:01:05,-0.000,0.0,0.0,0.0
19/07/2023,02:02:06,-0.000,0.0,0.0,0.0
19/07/2023,02:03:06,-0.000,0.0,0.0,0.0
19/07/2023,02:04:07,-0.000,0.0,0.0,0.0
19/07/2023,02:05:06,-0.000,0.0,0.0,0.0
19/07/2023,02:06:07,-0.000,0.0,0.0,0.0
19/07/2023,02:07:06,-0.000,0.0,0.0,0.0
19/07/2023,02:08:06,-0.000,0.0,0.0,0.0
19/07/2023,02:09:06,-0.000,0.0,0.0,0.0
19/07/2023,02:10:06,-0.000,0.0,0.0,0.0
19/07/2023,02:11:06,-0.000,0.0,0.0,0.0
19/07/2023,02:12:07,-0.000,0.0,0.0,0.0
19/07/2023,02:13:06,-0.000,0.0,0.0,0.0
19/07/2023,02:14:07,-0.000,0.0,0.0,0.0
19/07/2023,02:15:06,-0.000,0.0,0.0,0.0
19/07/2023,02:16:07,-0.000,0.0,0.0,0.0
19/07/2023,02:17:06,-0.000,0.0,0.0,0.0
19/07/2023,02:18:06,-0.000,0.0,0.0,0.0
19/07/2023,02:19:06,-0.000,0.0,0.0,0.0
19/07/2023,02:20:06,-0.000,0.0,0.0,0.0
19/07/2023,02:21:07,-0.000,0.0,0.0,0.0
19/07/2023,02:22:06,-0.000,0.0,0.0,0.0
19/07/2023,02:23:06,-0.000,0.0,0.0,0.0
19/07/2023,02:24:06,-0.000,0.0,0.0,0.0
19/07/2023,02:25:06,-0.000,0.0,0.0,0.0
19/07/2023,02:26:06,-0.000,0.0,0.0,0.0
19/07/2023,02:27:06,0.000,0.0,0.0,0.0
19/07/2023,02:28:06,-0.000,0.0,0.0,0.0
19/07/2023,02:29:06,-0.000,0.0,0.0,0.0
19/07/2023,02:30:06,-0.000,0.0,0.0,0.0
19/07/2023,02:31:07,-0.000,0.0,0.0,0.0
19/07/2023,02:32:06,-0.000,0.0,0.0,0.0
19/07/2023,02:33:06,-0.000,0.0,0.0,0.0
19/07/2023,02:34:06,-0.000,0.0,0.0,0.0
19/07/2023,02:35:06,-0.000,0.0,0.0,0.0
19/07/2023,02:36:07,-0.000,0.0,0.0,0.0
19/07/2023,02:37:06,-0.000,0.0,0.0,0.0
19/07/2023,02:38:07,-0.000,0.0,0.0,0.0
19/07/2023,02:39:06,-0.000,0.0,0.0,0.0
19/07/2023,02:40:06,-0.000,0.0,0.0,0.0
19/07/2023,02:41:07,-0.000,0.0,0.0,0.0
19/07/2023,02:42:06,-0.000,0.0,0.0,0.0
19/07/2023,02:43:07,-0.000,0.0,0.0,0.0
19/07/2023,02:44:07,-0.001,0.0,0.0,0.0
19/07/2023,02:45:07,-0.000,0.0,0.0,0.0
19/07/2023,02:46:06,-0.000,0.0,0.0,0.0
19/07/2023,02:47:06,-0.000,0.0,0.0,0.0
19/07/2023,02:48:06,-0.000,0.0,0.0,0.0
19/07/2023,02:49:06,-0.000,0.0,0.0,0.0
19/07/2023,02:50:07,-0.000,0.0,0.0,0.0
19/07/2023,02:51:06,-0.000,0.0,0.0,0.0
19/07/2023,02:52:06,-0.000,0.0,0.0,0.0
19/07/2023,02:53:06,-0.000,0.0,0.0,0.0
19/07/2023,02:54:06,-0.000,0.0,0.0,0.0
19/07/2023,02:55:07,-0.000,0.0,0.0,0.0
19/07/2023,02:56:06,-0.000,0.0,0.0,0.0
19/07/2023,02:57:07,-0.000,0.0,0.0,0.0
19/07/2023,02:58:06,-0.000,0.0,0.0,0.0
19/07/2023,02:59:06,-0.000,0.0,0.0,0.0
19/07/2023,03:00:06,-0.000,0.0,0.0,0.0
19/07/2023,03:01:07,-0.000,0.0,0.0,0.0
19/07/2023,03:02:06,-0.000,0.0,0.0,0.0
19/07/2023,03:03:06,-0.000,0.0,0.0,0.0
19/07/2023,03:04:07,-0.001,0.0,0.0,0.0
19/07/2023,03:05:06,-0.000,0.0,0.0,0.0
19/07/2023,03:06:07,-0.000,0.0,0.0,0.0
19/07/2023,03:07:06,-0.000,0.0,0.0,0.0
19/07/2023,03:08:07,-0.000,0.0,0.0,0.0
19/07/2023,03:09:06,-0.000,0.0,0.0,0.0
19/07/2023,03:10:06,-0.000,0.0,0.0,0.0
19/07/2023,03:11:06,-0.000,0.0,0.0,0.0
19/07/2023,03:12:07,-0.000,0.0,0.0,0.0
19/07/2023,03:13:06,-0.000,0.0,0.0,0.0
19/07/2023,03:14:06,-0.000,0.0,0.0,0.0
19/07/2023,03:15:07,-0.000,0.0,0.0,0.0
19/07/2023,03:16:06,-0.000,0.0,0.0,0.0
19/07/2023,03:17:06,-0.000,0.0,0.0,0.0
19/07/2023,03:18:06,-0.000,0.0,0.0,0.0
19/07/2023,03:19:07,-0.000,0.0,0.0,0.0
19/07/2023,03:20:07,-0.000,0.0,0.0,0.0
19/07/2023,03:21:06,-0.000,0.0,0.0,0.0
19/07/2023,03:22:06,-0.001,0.0,0.0,0.0
19/07/2023,03:23:06,-0.000,0.0,0.0,0.0
19/07/2023,03:24:06,-0.000,0.0,0.0,0.0
19/07/2023,03:25:06,-0.000,0.0,0.0,0.0
19/07/2023,03:26:06,-0.000,0.0,0.0,0.0
19/07/2023,03:27:06,-0.000,0.0,0.0,0.0
19/07/2023,03:28:06,-0.000,0.0,0.0,0.0
19/07/2023,03:29:06,-0.000,0.0,0.0,0.0
19/07/2023,03:30:06,-0.000,0.0,0.0,0.0
19/07/2023,03:31:06,-0.000,0.0,0.0,0.0
19/07/2023,03:32:06,-0.000,0.0,0.0,0.0
19/07/2023,03:33:06,-0.000,0.0,0.0,0.0
19/07/2023,03:34:07,-0.000,0.0,0.0,0.0
19/07/2023,03:35:07,-0.000,0.0,0.0,0.0
19/07/2023,03:36:07,-0.000,0.0,0.0,0.0
19/07/2023,03:37:07,-0.000,0.0,0.0,0.0
19/07/2023,03:38:06,-0.000,0.0,0.0,0.0
19/07/2023,03:39:07,-0.000,0.0,0.0,0.0
19/07/2023,03:40:06,-0.000,0.0,0.0,0.0
19/07/2023,03:41:05,-0.000,0.0,0.0,0.0
19/07/2023,03:42:06,-0.000,0.0,0.0,0.0
19/07/2023,03:43:06,-0.000,0.0,0.0,0.0
19/07/2023,03:44:07,-0.000,0.0,0.0,0.0
19/07/2023,03:45:06,-0.000,0.0,0.0,0.0
19/07/2023,03:46:06,-0.000,0.0,0.0,0.0
19/07/2023,03:47:06,-0.000,0.0,0.0,0.0
19/07/2023,03:48:06,-0.000,0.0,0.0,0.0
19/07/2023,03:49:06,-0.000,0.0,0.0,0.0
19/07/2023,03:50:06,-0.000,0.0,0.0,0.0
19/07/2023,03:51:06,-0.000,0.0,0.0,0.0
19/07/2023,03:52:07,-0.000,0.0,0.0,0.0
19/07/2023,03:53:06,0.000,0.0,0.0,0.0
19/07/2023,03:54:07,0.000,0.0,0.0,0.0
19/07/2023,03:55:06,0.000,0.0,0.0,0.0
19/07/2023,03:56:07,0.000,0.0,0.0,0.0
19/07/2023,03:57:06,-0.000,0.0,0.0,0.0
19/07/2023,03:58:07,0.001,0.0,0.0,0.0
19/07/2023,03:59:06,0.000,0.0,0.0,0.0
19/07/2023,04:00:06,0.001,0.0,0.0,0.0
19/07/2023,04:01:06,0.001,0.0,0.0,0.0
19/07/2023,04:02:06,-0.000,0.0,0.0,0.0
19/07/2023,04:03:06,-0.000,0.0,0.0,0.0
19/07/2023,04:04:06,0.001,0.0,0.0,0.0
19/07/2023,04:05:06,0.000,0.0,0.0,0.0
19/07/2023,04:06:07,0.002,0.0,0.0,0.0
19/07/2023,04:07:06,0.001,0.0,0.0,0.0
19/07/2023,04:08:06,0.001,0.0,0.0,0.0
19/07/2023,04:09:06,0.001,0.0,0.0,0.0
19/07/2023,04:10:06,0.002,0.0,0.0,0.0
19/07/2023,04:11:06,0.002,0.0,0.0,0.0
19/07/2023,04:12:06,0.002,0.0,0.0,0.0
19/07/2023,04:13:06,0.002,0.0,0.0,0.0
19/07/2023,04:14:06,0.002,0.0,0.0,0.0
19/07/2023,04:15:06,0.003,0.0,0.0,0.0
19/07/2023,04:16:07,0.002,0.0,0.0,0.0
19/07/2023,04:17:06,0.002,0.0,0.0,0.0
19/07/2023,04:18:07,0.002,0.0,0.0,0.0
19/07/2023,04:19:06,0.003,0.0,0.0,0.0
19/07/2023,04:20:06,0.003,0.0,0.0,0.0
19/07/2023,04:21:06,0.002,0.0,0.0,0.0
19/07/2023,04:22:06,0.003,0.0,0.0,0.0
19/07/2023,04:23:06,0.002,0.0,0.0,0.0
19/07/2023,04:24:06,0.003,0.0,0.0,0.0
19/07/2023,04:25:07,0.003,0.0,0.0,0.0
19/07/2023,04:26:06,0.003,0.0,0.0,0.0
19/07/2023,04:27:07,0.002,0.0,0.0,0.0
19/07/2023,04:28:06,0.004,0.0,0.0,0.0
19/07/2023,04:29:07,0.004,0.0,0.0,0.0
19/07/2023,04:30:06,0.004,0.0,0.0,0.0
19/07/2023,04:31:06,0.004,0.0,0.0,0.0
19/07/2023,04:32:06,0.004,0.0,0.0,0.0
19/07/2023,04:33:06,0.005,0.0,0.0,0.0
19/07/2023,04:34:06,0.005,0.0,0.0,0.0
19/07/2023,04:35:07,0.005,0.0,0.0,0.0
19/07/2023,04:36:06,0.004,0.0,0.0,0.0
19/07/2023,04:37:06,0.004,0.0,0.0,0.0
19/07/2023,04:38:06,0.005,0.0,0.0,0.0
19/07/2023,04:39:07,0.006,0.0,0.0,0.0
19/07/2023,04:40:06,0.005,0.0,0.0,0.0
19/07/2023,04:41:06,0.005,0.0,0.0,0.0
19/07/2023,04:42:06,0.006,0.0,0.0,0.0
19/07/2023,04:43:07,0.006,0.0,0.0,0.0
19/07/2023,04:44:06,0.006,0.0,0.0,0.0
19/07/2023,04:45:06,0.007,0.0,0.0,0.0
19/07/2023,04:46:07,0.006,0.0,0.0,0.0
19/07/2023,04:47:07,0.006,0.0,0.001,0.001
19/07/2023,04:48:06,0.006,0.0,0.001,0.0
19/07/2023,04:49:07,0.007,0.0,0.001,0.0
19/07/2023,04:50:07,0.008,0.0,0.001,0.0
19/07/2023,04:51:06,0.010,0.0,0.001,0.0
19/07/2023,04:52:06,0.010,0.0,0.001,0.0
19/07/2023,04:53:06,0.011,0.0,0.001,0.0
19/07/2023,04:54:06,0.010,0.0,0.002,0.001
19/07/2023,04:55:07,0.012,0.0,0.002,0.0
19/07/2023,04:56:06,0.013,0.0,0.002,0.0
19/07/2023,04:57:07,0.014,0.0,0.002,0.0
19/07/2023,04:58:06,0.015,0.0,0.002,0.0
19/07/2023,04:59:07,0.016,0.0,0.003,0.001
19/07/2023,05:00:06,0.017,0.0,0.003,0.0
19/07/2023,05:01:06,0.017,0.0,0.003,0.0
19/07/2023,05:02:07,0.018,0.0,0.004,0.001
19/07/2023,05:03:07,0.017,0.0,0.004,0.0
19/07/2023,05:04:06,0.017,0.0,0.004,0.0
19/07/2023,05:05:06,0.017,0.0,0.004,0.0
19/07/2023,05:06:06,0.016,0.0,0.005,0.001
19/07/2023,05:07:06,0.015,0.0,0.005,0.0
19/07/2023,05:08:06,0.015,0.0,0.005,0.0
19/07/2023,05:09:07,0.016,0.0,0.005,0.0
19/07/2023,05:10:06,0.015,0.0,0.006,0.001
19/07/2023,05:11:06,0.016,0.0,0.006,0.0
19/07/2023,05:12:06,0.016,0.0,0.006,0.0
19/07/2023,05:13:07,0.016,0.0,0.007,0.001
19/07/2023,05:14:06,0.017,0.0,0.007,0.0
19/07/2023,05:15:07,0.017,0.0,0.007,0.0
19/07/2023,05:16:06,0.018,0.0,0.007,0.0
19/07/2023,05:17:05,0.018,0.0,0.008,0.001
19/07/2023,05:18:06,0.020,0.0,0.008,0.0
19/07/2023,05:19:07,0.020,0.0,0.008,0.0
19/07/2023,05:20:06,0.022,0.0,0.009,0.001
19/07/2023,05:21:07,0.023,0.0,0.009,0.0
19/07/2023,05:22:06,0.024,0.0,0.009,0.0
19/07/2023,05:23:07,0.023,0.0,0.01,0.001
19/07/2023,05:24:06,0.024,0.0,0.01,0.0
19/07/2023,05:25:07,0.024,0.0,0.011,0.001
19/07/2023,05:26:06,0.023,0.0,0.011,0.0
19/07/2023,05:27:06,0.024,0.0,0.011,0.0
19/07/2023,05:28:06,0.025,0.0,0.012,0.001
19/07/2023,05:29:06,0.026,0.0,0.012,0.0
19/07/2023,05:30:07,0.026,0.0,0.013,0.001
19/07/2023,05:31:06,0.027,0.0,0.013,0.0
19/07/2023,05:32:06,0.029,0.0,0.014,0.001
19/07/2023,05:33:06,0.028,0.0,0.014,0.0
19/07/2023,05:34:07,0.030,0.0,0.014,0.0
19/07/2023,05:35:05,0.029,0.0,0.015,0.001
19/07/2023,05:36:07,0.031,0.0,0.015,0.0
19/07/2023,05:37:07,0.033,0.0,0.016,0.001
19/07/2023,05:38:06,0.033,0.0,0.017,0.001
19/07/2023,05:39:06,0.034,0.0,0.017,0.0
19/07/2023,05:40:06,0.035,0.0,0.018,0.001
19/07/2023,05:41:07,0.036,0.0,0.018,0.0
19/07/2023,05:42:06,0.036,0.0,0.019,0.001
19/07/2023,05:43:06,0.036,0.0,0.02,0.001
19/07/2023,05:44:07,0.036,0.0,0.02,0.0
19/07/2023,05:45:06,0.037,0.0,0.021,0.001
19/07/2023,05:46:06,0.036,0.0,0.021,0.0
19/07/2023,05:47:07,0.036,0.0,0.022,0.001
19/07/2023,05:48:06,0.037,0.0,0.023,0.001
19/07/2023,05:49:06,0.036,0.0,0.023,0.0
19/07/2023,05:50:06,0.037,0.0,0.024,0.001
19/07/2023,05:51:07,0.039,0.0,0.024,0.0
19/07/2023,05:52:09,0.041,0.0,0.025,0.001
19/07/2023,05:53:06,0.042,0.0,0.026,0.001
19/07/2023,05:54:07,0.044,0.0,0.026,0.0
19/07/2023,05:55:06,0.045,0.0,0.027,0.001
19/07/2023,05:56:06,0.044,0.0,0.028,0.001
19/07/2023,05:57:06,0.043,0.0,0.029,0.001
19/07/2023,05:58:07,0.044,0.0,0.029,0.0
19/07/2023,05:59:06,0.046,0.0,0.03,0.001
19/07/2023,06:00:07,0.046,0.0,0.031,0.001
19/07/2023,06:01:07,0.048,0.0,0.032,0.001
19/07/2023,06:02:06,0.049,0.0,0.033,0.001
19/07/2023,06:03:04,0.051,0.0,0.033,0.0
19/07/2023,06:04:07,0.051,0.0,0.034,0.001
19/07/2023,06:05:06,0.053,0.0,0.035,0.001
19/07/2023,06:06:06,0.054,0.0,0.036,0.001
19/07/2023,06:07:07,0.055,0.0,0.037,0.001
19/07/2023,06:08:06,0.056,0.0,0.038,0.001
19/07/2023,06:09:07,0.059,0.0,0.039,0.001
19/07/2023,06:10:07,0.062,0.0,0.04,0.001
19/07/2023,06:11:06,0.064,0.0,0.041,0.001
19/07/2023,06:12:07,0.067,0.0,0.042,0.001
19/07/2023,06:13:07,0.068,0.0,0.043,0.001
19/07/2023,06:14:06,0.073,0.0,0.044,0.001
19/07/2023,06:15:06,0.076,0.0,0.045,0.001
19/07/2023,06:16:06,0.081,0.0,0.047,0.002
19/07/2023,06:17:07,0.084,0.0,0.048,0.001
19/07/2023,06:18:06,0.086,0.0,0.05,0.002
19/07/2023,06:19:07,0.087,0.0,0.051,0.001
19/07/2023,06:20:06,0.090,0.0,0.053,0.002
19/07/2023,06:21:07,0.091,0.0,0.054,0.001
19/07/2023,06:22:07,0.093,0.0,0.056,0.002
19/07/2023,06:23:07,0.098,0.0,0.057,0.001
19/07/2023,06:24:07,0.100,0.0,0.059,0.002
19/07/2023,06:25:06,0.102,0.0,0.06,0.001
19/07/2023,06:26:07,0.102,0.0,0.062,0.002
19/07/2023,06:27:06,0.105,0.0,0.064,0.002
19/07/2023,06:28:06,0.108,0.0,0.066,0.002
19/07/2023,06:29:07,0.111,0.0,0.068,0.002
19/07/2023,06:30:06,0.116,0.0,0.069,0.001
19/07/2023,06:31:07,0.121,0.0,0.071,0.002
19/07/2023,06:32:07,0.125,0.0,0.073,0.002
19/07/2023,06:33:06,0.127,0.0,0.076,0.003
19/07/2023,06:34:07,0.129,0.0,0.078,0.002
19/07/2023,06:35:07,0.131,0.0,0.08,0.002
19/07/2023,06:36:06,0.129,0.0,0.082,0.002
19/07/2023,06:37:06,0.125,0.0,0.084,0.002
19/07/2023,06:38:07,0.122,0.0,0.086,0.002
19/07/2023,06:39:07,0.119,0.0,0.088,0.002
19/07/2023,06:40:06,0.119,0.0,0.09,0.002
19/07/2023,06:41:06,0.120,0.0,0.092,0.002
19/07/2023,06:42:07,0.126,0.0,0.094,0.002
19/07/2023,06:43:06,0.132,0.0,0.096,0.002
19/07/2023,06:44:06,0.141,0.0,0.099,0.003
19/07/2023,06:45:06,0.147,0.0,0.101,0.002
19/07/2023,06:46:07,0.152,0.0,0.104,0.003
19/07/2023,06:47:07,0.156,0.0,0.106,0.002
19/07/2023,06:48:07,0.155,0.0,0.109,0.003
19/07/2023,06:49:06,0.154,0.0,0.111,0.002
19/07/2023,06:50:07,0.152,0.0,0.114,0.003
19/07/2023,06:51:07,0.152,0.0,0.116,0.002
19/07/2023,06:52:06,0.155,0.0,0.119,0.003
19/07/2023,06:53:06,0.161,0.0,0.122,0.003
19/07/2023,06:54:07,0.169,0.0,0.124,0.002
19/07/2023,06:55:06,0.178,0.0,0.127,0.003
19/07/2023,06:56:07,0.190,0.0,0.13,0.003
19/07/2023,06:57:06,0.200,0.0,0.133,0.003
19/07/2023,06:58:08,0.211,0.0,0.137,0.004
19/07/2023,06:59:07,0.219,1.0,0.14,0.003
19/07/2023,07:00:06,0.225,1.0,0.144,0.004
19/07/2023,07:01:07,0.225,1.0,0.148,0.004
19/07/2023,07:02:06,0.217,0.0,0.152,0.004
19/07/2023,07:03:06,0.201,0.0,0.155,0.003
19/07/2023,07:04:07,0.180,0.0,0.158,0.003
19/07/2023,07:05:06,0.165,0.0,0.161,0.003
19/07/2023,07:06:29,0.157,0.0,0.165,0.004
19/07/2023,07:08:07,0.148,0.0,0.169,0.004
19/07/2023,07:09:07,0.148,0.0,0.171,0.002
19/07/2023,07:10:08,0.153,0.0,0.174,0.003
19/07/2023,07:11:07,0.164,0.0,0.177,0.003
19/07/2023,07:12:06,0.178,0.0,0.179,0.002
19/07/2023,07:13:07,0.196,0.0,0.182,0.003
19/07/2023,07:14:06,0.213,0.0,0.186,0.004
19/07/2023,07:15:07,0.232,1.0,0.19,0.004
19/07/2023,07:16:07,0.249,1.0,0.194,0.004
19/07/2023,07:17:07,0.265,1.0,0.198,0.004
19/07/2023,07:18:07,0.278,1.0,0.202,0.004
19/07/2023,07:19:07,0.285,1.0,0.207,0.005
19/07/2023,07:20:07,0.287,1.0,0.212,0.005
19/07/2023,07:21:06,0.289,1.0,0.217,0.005
19/07/2023,07:22:07,0.293,1.0,0.222,0.005
19/07/2023,07:23:07,0.301,1.0,0.226,0.004
19/07/2023,07:24:06,0.310,1.0,0.232,0.006
19/07/2023,07:25:06,0.322,1.0,0.237,0.005
19/07/2023,07:26:07,0.334,1.0,0.242,0.005
19/07/2023,07:27:06,0.341,1.0,0.248,0.006
19/07/2023,07:28:06,0.348,1.0,0.254,0.006
19/07/2023,07:29:07,0.362,1.0,0.26,0.006
19/07/2023,07:30:06,0.368,1.0,0.266,0.006
19/07/2023,07:31:06,0.371,1.0,0.272,0.006
19/07/2023,07:32:07,0.371,1.0,0.278,0.006
19/07/2023,07:33:07,0.374,1.0,0.284,0.006
19/07/2023,07:34:07,0.377,1.0,0.291,0.007
19/07/2023,07:35:07,0.377,1.0,0.297,0.006
19/07/2023,07:36:07,0.375,1.0,0.304,0.007
19/07/2023,07:37:07,0.378,1.0,0.31,0.006
19/07/2023,07:38:06,0.391,1.0,0.316,0.006
19/07/2023,07:39:07,0.414,1.0,0.323,0.007
19/07/2023,07:40:06,0.399,1.0,0.33,0.007
19/07/2023,07:41:07,0.406,1.0,0.337,0.007
19/07/2023,07:42:05,0.465,1.0,0.344,0.007
19/07/2023,07:43:07,0.442,1.0,0.352,0.008
19/07/2023,07:44:06,0.435,1.0,0.359,0.007
19/07/2023,07:45:06,0.431,1.0,0.367,0.008
19/07/2023,07:46:07,0.420,1.0,0.374,0.007
19/07/2023,07:47:06,0.430,1.0,0.381,0.007
19/07/2023,07:48:06,0.411,1.0,0.388,0.007
19/07/2023,07:49:07,0.466,1.0,0.395,0.007
19/07/2023,07:50:07,0.376,1.0,0.402,0.007
19/07/2023,07:51:07,0.374,1.0,0.408,0.006
19/07/2023,07:52:06,0.393,1.0,0.414,0.006
19/07/2023,07:53:07,0.408,1.0,0.421,0.007
19/07/2023,07:54:06,0.419,1.0,0.428,0.007
19/07/2023,07:55:06,0.423,1.0,0.435,0.007
19/07/2023,07:56:07,0.463,1.0,0.443,0.008
19/07/2023,07:57:07,0.419,1.0,0.45,0.007
19/07/2023,07:58:07,0.423,1.0,0.457,0.007
19/07/2023,07:59:06,0.429,1.0,0.464,0.007
19/07/2023,08:00:07,0.458,1.0,0.472,0.008
19/07/2023,08:01:06,0.484,1.0,0.48,0.008
19/07/2023,08:02:06,0.520,1.0,0.488,0.008
19/07/2023,08:03:06,0.547,1.0,0.497,0.009
19/07/2023,08:04:07,0.712,2.0,0.508,0.011
19/07/2023,08:05:07,0.532,1.0,0.518,0.01
19/07/2023,08:06:06,0.486,1.0,0.527,0.009
19/07/2023,08:07:07,0.470,1.0,0.535,0.008
19/07/2023,08:08:07,0.458,1.0,0.543,0.008
19/07/2023,08:09:07,0.435,1.0,0.55,0.007
19/07/2023,08:10:08,0.406,1.0,0.557,0.007
19/07/2023,08:11:07,0.430,1.0,0.564,0.007
19/07/2023,08:12:07,0.311,1.0,0.57,0.006
19/07/2023,08:13:06,0.261,1.0,0.574,0.004
19/07/2023,08:14:07,0.221,1.0,0.579,0.005
19/07/2023,08:15:07,0.228,1.0,0.582,0.003
19/07/2023,08:16:07,0.262,1.0,0.586,0.004
19/07/2023,08:17:06,0.304,1.0,0.591,0.005
19/07/2023,08:18:04,0.335,1.0,0.596,0.005
19/07/2023,08:19:06,0.370,1.0,0.602,0.006
19/07/2023,08:20:06,0.408,1.0,0.609,0.007
19/07/2023,08:21:06,0.443,1.0,0.616,0.007
19/07/2023,08:22:07,0.468,1.0,0.623,0.007
19/07/2023,08:23:07,0.491,1.0,0.631,0.008
19/07/2023,08:24:06,0.500,1.0,0.64,0.009
19/07/2023,08:25:07,0.498,1.0,0.648,0.008
19/07/2023,08:26:06,0.493,1.0,0.656,0.008
19/07/2023,08:27:06,0.482,1.0,0.664,0.008
19/07/2023,08:28:06,0.460,1.0,0.673,0.009
19/07/2023,08:29:07,0.453,1.0,0.681,0.008
19/07/2023,08:30:07,0.452,1.0,0.688,0.007
19/07/2023,08:31:07,0.471,1.0,0.696,0.008
19/07/2023,08:32:07,0.481,1.0,0.704,0.008
19/07/2023,08:33:06,0.477,1.0,0.712,0.008
19/07/2023,08:34:06,0.521,1.0,0.72,0.008
19/07/2023,08:35:07,0.473,1.0,0.728,0.008
19/07/2023,08:36:06,0.441,1.0,0.736,0.008
19/07/2023,08:37:06,0.442,1.0,0.744,0.008
19/07/2023,08:38:07,0.450,1.0,0.751,0.007
19/07/2023,08:39:07,0.466,1.0,0.759,0.008
19/07/2023,08:40:06,0.469,1.0,0.767,0.008
19/07/2023,08:41:07,0.451,1.0,0.774,0.007
19/07/2023,08:42:07,0.427,1.0,0.782,0.008
19/07/2023,08:43:06,0.385,1.0,0.789,0.007
19/07/2023,08:44:07,0.355,1.0,0.795,0.006
19/07/2023,08:45:06,0.341,1.0,0.801,0.006
19/07/2023,08:46:06,0.325,1.0,0.806,0.005
19/07/2023,08:47:07,0.307,1.0,0.812,0.006
19/07/2023,08:48:06,0.308,1.0,0.817,0.005
19/07/2023,08:49:06,0.337,1.0,0.822,0.005
19/07/2023,08:50:06,0.375,1.0,0.828,0.006
19/07/2023,08:51:07,0.398,1.0,0.834,0.006
19/07/2023,08:52:06,0.390,1.0,0.841,0.007
19/07/2023,08:53:07,0.358,1.0,0.847,0.006
19/07/2023,08:54:07,0.337,1.0,0.853,0.006
19/07/2023,08:55:07,0.301,1.0,0.859,0.006
19/07/2023,08:56:07,0.290,1.0,0.864,0.005
19/07/2023,08:57:07,0.292,1.0,0.868,0.004
19/07/2023,08:58:07,0.310,1.0,0.873,0.005
19/07/2023,08:59:07,0.361,1.0,0.879,0.006
19/07/2023,09:00:07,0.432,1.0,0.886,0.007
19/07/2023,09:01:07,0.508,1.0,0.894,0.008
19/07/2023,09:02:07,0.592,1.0,0.902,0.008
19/07/2023,09:03:07,0.671,2.0,0.913,0.011
19/07/2023,09:04:06,0.736,2.0,0.925,0.012
19/07/2023,09:05:08,0.902,2.0,0.939,0.014
19/07/2023,09:06:07,1.165,3.0,0.955,0.016
19/07/2023,09:07:07,1.298,3.0,0.975,0.02
19/07/2023,09:08:07,1.316,3.0,0.998,0.023
19/07/2023,09:09:06,1.343,3.0,1.018,0.02
19/07/2023,09:10:07,1.357,3.0,1.039,0.021
19/07/2023,09:11:07,1.239,3.0,1.06,0.021
19/07/2023,09:12:06,1.191,3.0,1.08,0.02
19/07/2023,09:13:06,0.868,2.0,1.098,0.018
19/07/2023,09:14:06,1.151,3.0,1.117,0.019
19/07/2023,09:15:29,0.691,2.0,1.135,0.018
19/07/2023,09:17:07,0.714,2.0,1.154,0.019
19/07/2023,09:18:06,0.756,2.0,1.166,0.012
19/07/2023,09:19:07,0.796,2.0,1.179,0.013
19/07/2023,09:20:07,0.844,2.0,1.193,0.014
19/07/2023,09:21:07,1.366,3.0,1.21,0.017
19/07/2023,09:22:06,1.310,3.0,1.232,0.022
19/07/2023,09:23:06,1.241,3.0,1.255,0.023
19/07/2023,09:24:07,1.479,3.0,1.278,0.023
19/07/2023,09:25:07,1.493,3.0,1.302,0.024
19/07/2023,09:26:06,1.381,3.0,1.322,0.02
19/07/2023,09:27:07,1.272,3.0,1.343,0.021
19/07/2023,09:28:07,0.975,2.0,1.363,0.02
19/07/2023,09:29:06,0.947,2.0,1.378,0.015
19/07/2023,09:30:07,0.933,2.0,1.394,0.016
19/07/2023,09:31:07,0.911,2.0,1.41,0.016
19/07/2023,09:32:07,0.942,2.0,1.425,0.015
19/07/2023,09:33:07,0.966,2.0,1.441,0.016
19/07/2023,09:34:07,0.959,2.0,1.46,0.019
19/07/2023,09:35:07,0.944,2.0,1.476,0.016
19/07/2023,09:36:07,0.951,2.0,1.491,0.015
19/07/2023,09:37:06,0.958,2.0,1.507,0.016
19/07/2023,09:38:07,1.036,2.0,1.524,0.017
19/07/2023,09:39:07,1.475,3.0,1.542,0.018
19/07/2023,09:40:06,1.604,4.0,1.565,0.023
19/07/2023,09:41:07,1.614,4.0,1.593,0.028
19/07/2023,09:42:07,1.636,4.0,1.619,0.026
19/07/2023,09:43:06,1.280,3.0,1.645,0.026
19/07/2023,09:44:07,1.012,2.0,1.665,0.02
19/07/2023,09:45:07,1.017,2.0,1.681,0.016
19/07/2023,09:46:06,1.037,2.0,1.698,0.017
19/07/2023,09:47:07,1.151,3.0,1.716,0.018
19/07/2023,09:48:06,1.249,3.0,1.74,0.024
19/07/2023,09:49:07,1.007,2.0,1.758,0.018
19/07/2023,09:50:06,0.941,2.0,1.774,0.016
19/07/2023,09:51:07,0.894,2.0,1.79,0.016
19/07/2023,09:52:07,0.871,2.0,1.804,0.014
19/07/2023,09:53:06,0.848,2.0,1.819,0.015
19/07/2023,09:54:07,0.831,2.0,1.833,0.014
19/07/2023,09:55:07,0.829,2.0,1.846,0.013